Theta_e
351 348 345 339 323 319 314 317 327 323 325 330 332 329 327 331 324 317 343 348 351 353 356 358 364 361 360 360 359 359 358 359 359 361 363 363 363 365 365 363 363 363 365 363 363 363 361 361 361
346 343 340 333 318 309 313 322 323 329 330 330 331 331 330 328 337 339 341 348 351 353 354 357 364 363 361 361 361 362 361 361 361 361 361 362 362 364 363 363 362 362 365 363 363 362 362 361 360
349 344 332 325 320 313 315 325 328 332 332 328 328 332 332 330 339 339 345 347 347 346 351 356 364 365 363 363 362 361 363 362 361 360 360 362 362 362 363 363 362 362 363 364 363 360 360 358 356
343 339 335 321 314 321 323 327 331 326 329 330 330 325 336 342 339 343 345 345 346 348 352 362 363 363 363 363 362 362 362 361 361 362 362 362 361 363 362 362 362 361 360 361 362 361 359 359 360
342 336 322 319 317 322 329 333 332 327 327 327 330 326 331 339 343 344 344 347 348 350 353 358 365 365 363 362 362 362 362 361 361 363 362 362 362 362 362 362 362 362 361 362 361 360 359 360 360
329 334 320 315 317 325 330 333 330 327 327 330 328 328 330 342 341 343 346 344 350 350 353 356 362 363 363 362 361 361 361 361 361 362 361 362 362 362 362 361 362 362 359 363 361 360 358 358 359
329 328 321 317 318 323 330 337 332 326 326 327 332 324 329 338 344 347 348 345 347 352 352 355 356 360 363 362 361 361 361 361 361 361 361 362 362 362 362 361 361 362 362 362 360 358 358 358 357
333 332 323 322 320 321 333 334 339 332 327 335 334 324 326 336 343 344 346 348 347 350 352 353 355 355 354 355 361 362 361 360 360 360 360 363 362 362 361 363 365 362 362 362 359 357 356 354 354
341 324 320 322 322 326 334 331 339 342 334 332 334 331 336 340 343 342 341 344 345 347 349 352 352 352 352 353 356 359 361 360 360 359 360 360 351 352 356 361 364 361 361 360 360 358 356 355 355
331 323 324 331 331 330 333 333 333 332 332 331 330 335 339 340 341 337 336 339 342 344 348 349 351 351 352 354 352 351 353 351 352 351 352 349 349 349 355 359 363 362 360 358 360 362 359 359 350
333 325 332 331 334 335 332 330 334 331 328 327 326 330 336 336 336 336 336 339 343 346 348 348 349 349 347 350 351 348 350 351 352 348 350 350 349 351 352 352 353 352 354 351 352 354 351 350 351
328 332 333 333 335 332 330 333 331 335 334 334 332 333 337 335 334 334 335 342 342 343 346 348 350 349 349 350 349 347 348 350 346 352 347 346 346 347 348 352 350 346 347 344 348 350 353 354 353
322 328 334 335 333 332 332 330 332 332 339 339 333 332 335 336 335 337 340 343 345 345 346 346 346 346 348 351 348 347 349 345 347 346 347 350 348 347 345 345 350 348 345 345 339 343 347 344 347
332 331 333 332 331 332 328 330 332 332 332 337 331 329 329 330 336 338 341 342 342 343 346 343 343 347 351 352 349 348 345 342 345 345 349 352 350 348 348 347 348 345 349 346 339 343 348 343 343
331 325 328 332 331 330 333 326 328 334 333 335 330 330 330 331 337 335 341 344 342 343 346 345 346 351 352 346 349 348 349 348 347 350 348 350 350 345 346 340 343 346 351 347 348 347 351 345 346
324 324 318 327 331 332 330 319 332 336 333 334 330 330 330 330 332 336 337 343 343 344 342 341 350 348 347 348 346 346 350 348 346 350 351 354 350 349 346 344 346 349 344 349 344 345 342 341 343
319 312 316 320 332 330 327 322 331 336 335 331 330 330 329 329 330 335 336 337 343 345 343 341 346 345 349 350 349 346 345 345 350 349 351 351 352 353 352 348 346 352 346 347 347 344 345 342 340
309 312 316 316 327 328 324 321 329 334 333 331 330 329 329 329 329 334 336 339 344 345 345 346 347 345 345 350 349 347 346 349 352 351 354 356 354 354 350 354 348 348 347 347 342 343 342 344 338
312 312 314 320 326 326 321 323 329 331 331 329 328 329 328 328 332 332 336 339 345 343 344 345 348 350 348 349 342 345 341 345 351 353 354 350 350 356 353 352 346 348 347 343 350 347 346 346 346
308 310 313 321 325 322 313 319 328 330 330 330 329 327 328 328 329 329 334 339 343 342 343 349 349 348 348 348 349 348 347 347 349 354 355 353 354 353 355 351 350 348 346 349 346 340 344 342 341
306 307 310 315 320 319 315 315 322 329 331 332 334 333 334 330 328 329 331 337 340 343 345 348 347 348 348 349 351 354 352 351 349 352 351 356 357 356 353 353 352 345 346 343 345 349 341 338 343
299 309 312 314 313 306 318 306 314 323 326 328 330 332 333 335 330 331 330 335 339 343 348 350 348 346 346 351 345 346 342 343 344 346 351 351 357 357 356 354 353 353 345 342 345 352 346 339 338
304 312 315 316 311 311 310 308 313 322 321 324 326 330 332 334 334 332 333 336 341 344 346 351 349 347 345 350 350 348 346 343 344 350 348 353 353 358 355 354 352 350 349 347 348 349 348 347 347
311 307 313 312 310 300 309 306 312 317 322 325 327 331 333 334 334 336 336 338 340 343 346 351 349 348 347 351 349 348 346 342 343 343 349 347 350 351 351 356 353 353 346 341 342 350 349 350 348
305 299 297 297 299 297 302 307 310 321 327 324 324 329 330 332 334 335 336 339 338 340 344 346 351 347 349 350 348 351 349 348 347 348 344 346 346 345 347 353 353 352 349 346 346 351 349 352 346
301 301 296 294 294 296 303 303 310 323 328 330 327 331 329 329 333 335 334 339 340 338 344 346 349 349 349 348 350 351 350 350 348 351 346 350 342 346 349 353 353 355 352 353 353 352 351 349 349
302 300 305 297 301 295 306 311 318 322 323 328 329 329 326 327 329 330 331 340 343 338 343 346 348 349 349 350 350 353 352 351 349 349 349 348 347 352 353 350 353 353 354 352 353 351 351 351 349
305 307 298 296 292 290 305 306 309 316 316 321 322 325 328 332 336 333 337 339 340 341 345 348 350 350 351 351 353 353 353 354 354 355 353 352 350 349 349 350 348 352 354 354 352 349 351 350 350
303 301 301 299 299 292 298 305 318 315 317 317 321 324 327 329 334 337 338 336 338 338 343 347 349 352 352 352 353 352 355 355 354 354 355 352 349 348 347 345 341 347 352 353 352 350 350 352 349
306 303 301 294 294 299 303 304 321 318 318 320 321 325 326 329 329 333 335 337 338 336 337 340 341 344 347 354 354 354 355 355 356 355 355 354 349 349 345 338 337 343 350 354 352 351 351 350 348
Wind_Speed
8 6 4 3 1 4 4 6 7 11 16 18 17 17 10 10 11 8 14 15 18 14 11 11 13 13 12 11 11 12 12 12 12 12 12 13 13 13 14 14 15 14 15 16 16 16 16 15 15
6 9 3 3 1 2 4 6 10 3 18 18 26 26 25 20 18 20 18 21 18 15 10 9 13 13 12 11 12 12 12 13 11 12 12 13 12 13 14 15 14 14 13 16 15 16 15 13 13
8 11 1 1 2 3 3 5 4 5 16 16 16 18 11 19 18 15 23 22 19 15 11 10 14 14 15 13 13 13 12 12 12 11 12 13 13 13 13 13 13 13 14 14 15 14 14 12 10
5 2 3 1 1 2 3 12 6 20 22 25 23 15 14 18 18 22 26 22 19 15 10 13 15 15 15 14 13 13 13 13 12 12 12 13 13 13 12 12 14 13 14 13 14 14 13 12 10
6 4 1 2 3 5 6 7 14 16 16 20 25 25 23 19 24 24 23 22 21 15 11 10 14 13 15 14 13 13 13 12 12 12 12 14 13 13 11 12 14 13 14 12 12 13 10 9 10
1 3 1 4 6 4 7 6 18 15 21 19 25 24 19 23 25 22 21 20 20 17 13 11 15 14 14 14 13 13 12 12 12 12 12 13 13 12 11 12 13 15 13 13 12 11 9 8 8
2 2 3 10 10 7 6 2 6 17 21 16 21 24 13 25 22 23 20 19 18 17 14 10 9 13 15 14 13 13 12 12 11 12 12 13 13 13 12 11 12 12 12 11 10 9 8 6 5
3 2 2 8 10 3 5 3 4 12 18 18 21 16 19 21 18 15 15 16 18 15 14 12 10 8 7 7 13 12 13 12 11 11 12 13 14 13 12 7 9 11 10 10 8 5 3 2 2
4 3 4 5 15 7 7 5 3 4 14 11 7 13 23 26 20 20 8 7 15 13 14 12 11 8 7 6 8 11 12 11 11 11 12 9 4 6 7 7 8 11 8 5 6 5 4 3 3
5 4 3 7 11 12 9 5 1 4 9 9 19 16 23 22 22 15 12 15 13 13 13 10 10 11 10 8 6 6 6 5 5 5 5 3 3 5 6 7 7 11 10 5 3 5 5 6 3
2 3 1 12 14 15 13 5 2 4 11 22 23 21 22 17 17 19 15 14 15 16 12 12 10 8 7 7 4 3 3 3 3 6 5 3 3 3 3 1 3 4 15 2 4 4 1 5 5
9 2 3 11 15 12 12 10 4 9 4 9 21 19 21 21 16 13 13 20 15 9 11 14 8 7 8 5 3 4 3 4 3 5 5 4 3 3 4 1 3 3 2 5 5 4 3 7 9
4 2 4 17 15 13 11 8 5 6 3 3 19 15 21 19 18 14 17 18 18 16 13 10 8 6 5 7 4 4 4 4 5 5 6 5 2 3 5 3 3 2 2 2 3 2 1 4 3
4 8 14 19 12 18 13 13 6 5 8 8 18 9 9 11 18 16 20 17 15 17 14 8 8 6 7 6 8 6 3 5 5 4 4 6 6 5 5 2 3 2 3 0 4 3 3 2 2
16 6 11 13 13 20 21 5 11 14 13 13 18 12 9 8 20 19 21 16 17 14 16 10 9 6 5 7 6 4 4 3 4 4 6 7 6 5 5 2 3 4 4 5 1 4 4 3 1
6 8 5 12 21 19 8 4 15 19 18 15 17 15 12 7 12 14 19 19 13 16 14 10 11 7 6 5 7 3 4 5 3 5 4 5 6 6 4 3 1 0 1 1 3 3 1 0 2
7 8 13 17 17 18 6 11 9 11 13 14 16 16 12 12 7 14 13 16 16 16 12 9 10 7 7 7 5 3 6 4 2 4 4 5 5 8 3 4 4 2 3 3 2 3 3 2 1
8 10 5 1 13 19 9 13 16 12 12 19 15 14 13 15 9 13 15 13 16 9 9 14 9 7 7 6 4 2 4 2 2 4 4 4 3 4 3 3 4 2 2 1 0 2 1 1 0
15 9 11 17 7 15 12 14 13 12 11 14 17 12 14 15 12 12 14 14 15 8 10 9 12 7 4 2 5 3 2 3 1 3 6 4 3 2 4 1 4 4 3 2 2 1 2 3 2
20 8 7 13 10 6 23 12 17 13 8 16 15 10 11 16 15 12 17 15 14 10 8 7 9 8 5 3 2 3 3 2 3 4 5 5 4 4 4 2 1 3 3 2 1 2 2 2 2
18 14 15 8 10 16 22 16 7 12 9 7 3 3 4 8 18 10 15 16 15 14 10 9 8 8 6 5 2 1 3 4 2 3 3 4 6 6 5 6 3 1 1 1 1 1 3 1 3
13 11 14 21 11 9 19 11 13 8 10 13 12 5 2 5 15 12 11 16 17 15 12 13 8 8 7 4 3 4 4 5 1 1 4 4 7 6 6 7 5 4 2 3 2 2 1 3 3
14 5 6 12 9 6 16 5 6 8 10 9 7 9 4 8 9 17 11 17 17 17 14 12 11 8 6 5 3 4 5 3 1 3 5 4 2 6 6 7 6 2 2 3 3 4 4 2 1
13 11 4 2 4 4 17 7 6 14 13 12 5 4 14 10 6 6 7 10 17 15 14 12 14 8 7 5 4 4 6 6 4 3 4 2 1 1 4 6 7 6 3 3 1 3 3 1 2
11 5 3 4 4 8 8 7 2 11 18 15 13 13 8 5 1 6 8 5 16 15 15 12 12 10 7 7 6 4 4 6 6 6 4 5 3 1 3 3 4 4 4 4 3 2 1 2 1
9 7 6 8 7 7 4 5 7 6 13 15 17 21 13 7 7 8 10 10 7 15 16 15 12 13 9 8 8 7 6 4 4 5 4 3 4 5 7 6 6 5 6 4 4 1 2 3 3
8 8 9 6 7 2 7 4 9 7 9 14 12 13 12 12 15 13 17 6 7 15 17 17 16 13 12 10 7 7 7 6 6 6 6 6 5 3 5 5 4 6 6 6 4 3 3 3 3
10 3 8 2 2 4 5 6 10 13 11 12 11 9 6 3 18 18 17 3 5 6 15 17 17 16 14 9 8 6 7 7 6 4 6 7 5 4 4 6 5 4 6 7 6 3 3 4 4
3 1 3 2 3 4 6 3 5 13 12 11 8 7 5 5 6 6 9 10 9 13 9 4 8 15 15 13 9 8 7 7 6 6 5 6 6 7 5 6 5 4 6 6 6 5 5 5 6
4 7 4 5 9 1 5 2 10 12 13 11 7 7 7 7 9 7 8 5 9 12 12 13 13 11 8 12 12 11 8 7 7 7 7 7 8 6 7 5 6 7 6 6 7 7 5 6 6
Wind_Direction
167 175 201 247 290 70 121 267 286 112 83 64 79 87 87 99 164 134 150 131 127 129 133 129 123 120 118 114 109 104 99 97 94 90 88 91 90 95 95 92 88 93 99 98 102 100 97 97 96
183 198 220 264 209 128 140 186 250 355 92 78 88 86 72 77 104 126 135 132 128 133 122 120 126 121 119 120 115 103 99 93 104 95 96 93 93 91 90 93 102 99 103 104 101 103 100 98 100
240 240 146 296 347 154 134 164 227 144 94 99 92 88 84 110 120 121 127 135 138 125 121 131 127 123 121 118 111 104 101 97 101 110 105 98 97 97 99 106 105 105 102 106 103 103 103 106 92
214 287 56 230 120 319 146 194 205 96 90 96 108 83 116 125 119 133 135 134 116 118 123 130 130 124 119 114 109 109 105 105 104 105 108 109 106 107 108 107 106 108 102 102 103 108 109 109 96
226 63 253 135 92 302 263 281 141 95 103 99 104 110 116 117 131 135 127 126 119 121 130 126 124 123 118 113 110 109 110 109 109 106 105 108 107 107 114 107 105 108 119 106 110 112 115 114 92
10 111 181 135 115 255 291 345 97 108 108 102 104 111 114 128 122 124 123 122 125 135 131 127 127 124 119 120 118 116 117 117 119 112 110 111 112 113 108 102 110 115 116 121 119 121 133 123 107
165 219 305 118 145 202 159 243 51 120 116 109 119 118 124 119 130 129 125 128 131 131 129 134 132 132 129 126 129 130 130 122 121 122 118 113 113 112 107 109 119 125 125 117 122 139 139 125 135
179 254 310 144 146 186 154 78 327 102 114 117 124 140 132 136 116 110 123 133 136 138 137 138 140 136 127 133 137 135 133 134 129 126 126 120 119 115 112 109 129 127 114 112 112 117 111 173 173
65 264 123 159 154 161 138 120 356 261 121 136 122 141 129 122 117 126 124 99 134 141 141 145 152 147 143 133 148 142 139 131 138 133 134 127 133 129 124 133 128 111 95 105 137 146 177 236 246
130 261 159 224 139 156 125 103 154 142 121 137 135 136 127 126 122 131 144 154 123 142 143 140 146 149 147 147 153 151 138 138 158 150 158 150 176 150 130 135 118 108 80 350 289 191 212 222 211
101 246 102 183 132 140 134 123 202 159 130 145 142 147 135 135 138 148 155 152 153 139 132 141 159 163 143 158 165 120 159 161 173 168 172 183 119 99 89 86 115 135 129 265 296 237 241 320 287
199 323 168 123 134 130 132 134 92 45 16 138 141 140 140 147 160 152 134 141 140 143 148 155 170 147 132 152 164 147 167 171 184 144 139 128 108 134 148 123 74 82 108 195 217 242 195 237 251
144 234 169 133 137 135 111 117 86 82 210 103 149 159 155 159 163 158 124 141 149 151 140 153 165 130 142 151 143 171 190 158 132 144 148 131 120 77 90 150 147 136 163 272 305 33 7 266 47
184 268 182 143 154 134 143 133 123 174 235 293 158 171 175 166 160 152 137 146 147 132 145 149 125 157 172 170 162 184 178 155 113 104 95 109 134 123 127 188 74 289 192 240 274 302 328 274 37
168 233 150 152 167 132 122 204 158 176 173 224 159 173 189 189 143 144 147 146 143 138 144 143 136 133 109 100 112 142 114 115 132 126 119 123 129 138 125 187 117 253 138 150 43 309 287 348 131
202 117 231 173 171 154 135 132 139 174 179 182 171 174 191 152 129 138 130 149 145 130 138 147 128 143 124 107 105 108 87 71 143 118 136 139 117 127 185 129 73 358 118 31 120 268 246 172 274
220 224 217 180 175 154 138 140 244 153 190 164 175 179 180 145 132 135 130 126 142 140 149 132 130 149 123 102 91 135 106 67 226 137 139 148 139 168 174 142 185 207 120 212 209 217 145 174 251
219 227 234 213 178 167 138 170 191 186 186 177 178 179 171 154 154 139 131 123 140 142 124 135 143 152 144 122 112 82 126 204 142 135 149 146 162 144 124 137 159 125 38 124 279 44 332 246 86
262 236 164 185 354 129 7 140 185 198 179 158 177 189 164 156 152 141 137 128 135 133 130 143 136 164 135 134 140 173 175 168 160 154 145 175 180 178 113 84 137 151 101 275 243 71 332 311 261
264 269 339 109 176 93 48 278 180 195 171 168 177 191 169 158 153 150 145 140 141 147 144 137 140 148 162 158 158 145 175 165 161 164 165 198 165 167 130 164 192 35 77 22 11 110 358 350 257
254 254 206 161 98 68 100 264 222 204 142 106 337 179 51 178 154 156 147 150 148 152 151 146 156 157 175 175 161 228 74 87 106 172 165 179 172 137 149 134 156 148 206 63 330 345 95 350 312
252 247 250 133 148 162 192 174 250 227 140 154 192 215 357 354 163 158 154 157 157 160 160 149 160 169 195 193 175 179 147 146 152 223 182 173 174 168 156 147 142 155 126 297 306 313 120 95 9
246 230 176 169 173 111 198 138 194 155 173 176 178 157 270 302 327 168 172 162 165 161 164 155 159 179 196 213 200 174 112 91 224 138 154 178 186 158 149 153 155 153 104 200 343 307 86 88 108
247 261 158 173 135 279 234 179 162 172 171 186 131 181 188 252 283 343 206 147 162 167 161 155 162 182 190 197 205 160 143 132 100 113 185 164 80 63 165 160 147 164 196 213 246 292 29 75 55
244 246 123 263 214 232 203 161 254 162 174 167 171 188 186 275 281 296 311 174 166 167 165 164 164 177 191 179 196 184 160 142 179 191 175 173 158 221 328 168 147 161 185 196 243 259 322 305 312
239 189 164 184 220 229 325 102 176 142 158 169 191 180 170 201 239 243 262 271 166 172 169 171 172 173 187 178 194 185 182 161 193 179 188 162 161 192 211 200 171 190 197 202 172 184 268 285 260
267 253 228 252 285 162 106 55 69 137 90 177 195 180 148 194 211 235 246 269 306 190 174 176 179 178 184 189 188 180 182 184 209 219 182 168 186 178 121 113 175 210 190 199 175 198 265 291 250
220 264 254 329 223 230 110 174 143 147 123 96 93 111 117 240 234 216 227 61 29 339 183 179 181 180 180 186 186 192 184 187 199 223 198 186 163 136 173 182 176 235 194 191 185 209 258 235 262
201 224 336 145 182 174 138 61 15 128 110 100 88 94 81 48 37 121 119 103 81 37 327 137 194 182 180 185 185 186 196 194 191 204 226 167 156 165 207 194 180 217 232 201 183 198 226 218 223
186 175 213 142 284 52 97 134 101 92 93 108 106 113 96 76 54 67 88 127 92 71 359 51 32 34 327 192 182 189 183 187 193 199 213 177 169 178 202 198 209 207 234 200 193 210 218 211 212